Location: Ay?beleni
(36.6500°N, 30.3000°E)
Time: 15:03:45
(UTC+00:00)

ISS - Pass Details

Date: 07 August 2021
Orbit: 419 x 423 km, 51.6° (Epoch: 21 September)

Event Time Altitude Azimuth Distance (km) Brightness Sun altitude
Rises 17:10:20 0° 298° (WNW) 2,374 3.0 -2.9°
Reaches altitude 10° 17:12:43 10° 283° (WNW) 1,505 0.9 -3.4°
Maximum altitude 17:15:25 22° 230° (SW) 958 -1.6 -3.9°
Drops below altitude 10° 17:18:07 10° 176° (S) 1,494 -1.2 -4.4°
Enters shadow 17:20:59 -2° 159° (SSE) 2,544 -0.2 -4.9°
